Location: ?????? ??????
(44.3742°N, 135.2221°E)
Time: 01:07:20
(UTC+00:00)

Cosmos 2297 Rocket - Pass Details

Date: 19 May 2025
Orbit: 837 x 844 km, 71.0° (Epoch: 13 June)

Event Time Altitude Azimuth Distance (km) Brightness Sun altitude
Exits shadow 17:39:00 23° 233° (SW) 1,698 3.2 -15.7°
Maximum altitude 17:42:20 53° 300° (WNW) 1,033 2.6 -15.3°
Drops below altitude 10° 17:47:52 10° 17° (NNE) 2,472 5.7 -14.6°
Sets 17:50:24 0° 23° (NNE) 3,411 6.8 -14.3°
